User: anonymous   Login
Location: Prague
(50.0830°N, 14.4670°E)
Time: 04:45:38
(UTC+01:00)
Language:

CAS-6 - Orbit

View from above orbital plane
View from above orbital plane
View from above satellite
View from above satellite

Ground track
Ground track

The orbit data is extracted from the following two-line orbital elements,

1 44881U 19093C   21332.79505741  .00000158  00000-0  26868-4 0  9994
2 44881  97.9128  49.7316 0016335 116.4036 243.8851 14.81515178105066
Epoch (UTC): 28 November 2021 19:04:52
Eccentricity: 0.0016335
inclination: 97.9128°
perigee height: 613 km
apogee height: 636 km
right ascension of ascending node: 49.7316°
argument of perigee: 116.4036°
revolutions per day: 14.81515178
mean anomaly at epoch: 243.8851°
orbit number at epoch: 10506

The dashed part of the orbit path shows where the satellite is in the earth's shadow,  

DLR